TimeMDT,TemperatureF,Dew PointF,Humidity,Sea Level PressureIn,VisibilityMPH,Wind Direction,Wind SpeedMPH,Gust SpeedMPH,PrecipitationIn,Events,Conditions,WindDirDegrees,DateUTC
12:15 AM,64.4,62.6,94,30.12,10.0,NW,8.1,-,N/A,,Clear,310,2013-09-16 06:15:00
12:35 AM,64.4,62.6,94,30.12,10.0,West,6.9,-,N/A,,Clear,280,2013-09-16 06:35:00
12:55 AM,64.4,62.6,94,30.12,10.0,NW,8.1,-,N/A,,Clear,320,2013-09-16 06:55:00
1:15 AM,64.4,62.6,94,30.12,10.0,WNW,8.1,-,N/A,,Clear,300,2013-09-16 07:15:00
1:35 AM,64.4,62.6,94,30.12,10.0,NW,8.1,-,N/A,,Clear,310,2013-09-16 07:35:00
1:55 AM,64.4,62.6,94,30.12,10.0,NW,6.9,-,N/A,,Clear,310,2013-09-16 07:55:00
2:15 AM,64.4,62.6,94,30.12,10.0,NW,6.9,-,N/A,,Clear,320,2013-09-16 08:15:00
2:35 AM,64.4,62.6,94,30.12,10.0,NW,8.1,-,N/A,,Clear,310,2013-09-16 08:35:00
2:55 AM,64.4,62.6,94,30.12,10.0,NNW,8.1,-,N/A,,Clear,330,2013-09-16 08:55:00
3:15 AM,64.4,60.8,88,30.12,10.0,NW,8.1,-,N/A,,Clear,320,2013-09-16 09:15:00
3:35 AM,64.4,60.8,88,30.12,10.0,NW,6.9,-,N/A,,Clear,320,2013-09-16 09:35:00
3:55 AM,64.4,60.8,88,30.12,10.0,NNW,6.9,-,N/A,,Clear,340,2013-09-16 09:55:00
4:15 AM,64.4,60.8,88,30.13,10.0,NNW,5.8,-,N/A,,Clear,340,2013-09-16 10:15:00
4:35 AM,62.6,60.8,94,30.14,10.0,NNW,8.1,-,N/A,,Clear,330,2013-09-16 10:35:00
4:55 AM,62.6,60.8,94,30.14,10.0,NNW,8.1,-,N/A,,Clear,340,2013-09-16 10:55:00
5:15 AM,62.6,59.0,88,30.15,10.0,North,6.9,-,N/A,,Clear,350,2013-09-16 11:15:00
5:35 AM,62.6,59.0,88,30.15,10.0,North,6.9,-,N/A,,Partly Cloudy,360,2013-09-16 11:35:00
5:55 AM,62.6,59.0,88,30.16,10.0,North,4.6,-,N/A,,Partly Cloudy,360,2013-09-16 11:55:00
6:15 AM,62.6,59.0,88,30.16,10.0,NNW,4.6,-,N/A,,Clear,340,2013-09-16 12:15:00
6:35 AM,62.6,59.0,88,30.17,10.0,NW,5.8,-,N/A,,Clear,320,2013-09-16 12:35:00
6:55 AM,60.8,59.0,94,30.18,10.0,NNW,4.6,-,N/A,,Clear,330,2013-09-16 12:55:00
7:15 AM,62.6,60.8,94,30.18,10.0,NW,5.8,-,N/A,,Partly Cloudy,320,2013-09-16 13:15:00
7:35 AM,64.4,62.6,94,30.19,10.0,NW,4.6,-,N/A,,Clear,320,2013-09-16 13:35:00
7:55 AM,64.4,62.6,94,30.19,10.0,NW,4.6,-,N/A,,Clear,320,2013-09-16 13:55:00
8:15 AM,66.2,62.6,88,30.19,10.0,NNW,5.8,-,N/A,,Clear,330,2013-09-16 14:15:00
8:35 AM,68.0,62.6,83,30.19,10.0,North,3.5,-,N/A,,Clear,350,2013-09-16 14:35:00
8:55 AM,68.0,62.6,83,30.20,10.0,Calm,Calm,-,N/A,,Clear,0,2013-09-16 14:55:00
9:15 AM,69.8,62.6,78,30.20,10.0,SE,4.6,-,N/A,,Clear,140,2013-09-16 15:15:00
9:35 AM,71.6,62.6,73,30.21,10.0,Calm,Calm,-,N/A,,Clear,0,2013-09-16 15:35:00
9:55 AM,73.4,62.6,69,30.21,10.0,Calm,Calm,-,N/A,,Clear,0,2013-09-16 15:55:00
10:15 AM,73.4,62.6,69,30.21,10.0,WSW,3.5,-,N/A,,Clear,250,2013-09-16 16:15:00
10:35 AM,75.2,62.6,65,30.21,10.0,ENE,3.5,-,N/A,,Clear,60,2013-09-16 16:35:00
10:55 AM,75.2,62.6,65,30.21,10.0,SE,4.6,-,N/A,,Clear,140,2013-09-16 16:55:00
11:15 AM,75.2,62.6,65,30.21,10.0,Calm,Calm,-,N/A,,Partly Cloudy,0,2013-09-16 17:15:00
11:35 AM,77.0,62.6,61,30.21,10.0,SSW,3.5,-,N/A,,Scattered Clouds,200,2013-09-16 17:35:00
11:55 AM,77.0,60.8,57,30.21,10.0,SSE,3.5,-,N/A,,Partly Cloudy,150,2013-09-16 17:55:00
12:15 PM,77.0,62.6,61,30.20,10.0,SE,6.9,-,N/A,,Scattered Clouds,130,2013-09-16 18:15:00
12:35 PM,77.0,60.8,57,30.19,10.0,Calm,Calm,-,N/A,,Scattered Clouds,0,2013-09-16 18:35:00
12:55 PM,78.8,60.8,54,30.18,10.0,South,4.6,-,N/A,,Mostly Cloudy,170,2013-09-16 18:55:00
1:15 PM,80.6,60.8,51,30.17,10.0,SSW,6.9,-,N/A,,Scattered Clouds,210,2013-09-16 19:15:00
1:35 PM,80.6,60.8,51,30.16,10.0,South,3.5,-,N/A,,Scattered Clouds,180,2013-09-16 19:35:00
1:55 PM,80.6,60.8,51,30.15,10.0,SSE,6.9,-,N/A,,Partly Cloudy,150,2013-09-16 19:55:00
2:15 PM,80.6,59.0,48,30.14,10.0,Calm,Calm,-,N/A,,Partly Cloudy,0,2013-09-16 20:15:00
2:35 PM,82.4,59.0,45,30.13,10.0,South,5.8,-,N/A,,Partly Cloudy,180,2013-09-16 20:35:00
2:55 PM,82.4,59.0,45,30.12,10.0,SE,6.9,16.1,N/A,,Scattered Clouds,140,2013-09-16 20:55:00
3:15 PM,82.4,59.0,45,30.11,10.0,SSE,6.9,-,N/A,,Partly Cloudy,150,2013-09-16 21:15:00
3:35 PM,82.4,59.0,45,30.10,10.0,South,9.2,16.1,N/A,,Scattered Clouds,170,2013-09-16 21:35:00
3:55 PM,82.4,59.0,45,30.09,10.0,SSE,10.4,-,N/A,,Scattered Clouds,150,2013-09-16 21:55:00
4:15 PM,82.4,59.0,45,30.09,10.0,SE,9.2,-,N/A,,Mostly Cloudy,130,2013-09-16 22:15:00
4:35 PM,82.4,59.0,45,30.08,10.0,South,12.7,-,N/A,,Mostly Cloudy,170,2013-09-16 22:35:00
4:55 PM,82.4,57.2,42,30.08,10.0,South,11.5,-,N/A,,Partly Cloudy,190,2013-09-16 22:55:00
5:15 PM,82.4,55.4,39,30.08,10.0,SSE,11.5,-,N/A,,Clear,150,2013-09-16 23:15:00
5:35 PM,82.4,55.4,39,30.08,10.0,South,9.2,-,N/A,,Clear,170,2013-09-16 23:35:00
5:55 PM,82.4,55.4,39,30.08,10.0,South,10.4,-,N/A,,Scattered Clouds,180,2013-09-16 23:55:00
6:15 PM,80.6,57.2,45,30.08,10.0,South,9.2,-,N/A,,Scattered Clouds,180,2013-09-17 00:15:00
6:35 PM,80.6,57.2,45,30.08,10.0,South,6.9,-,N/A,,Clear,180,2013-09-17 00:35:00
6:55 PM,80.6,59.0,48,30.09,10.0,South,4.6,-,N/A,,Clear,190,2013-09-17 00:55:00
7:15 PM,78.8,59.0,51,30.09,10.0,South,5.8,-,N/A,,Partly Cloudy,180,2013-09-17 01:15:00
7:35 PM,78.8,60.8,54,30.10,10.0,SE,5.8,-,N/A,,Mostly Cloudy,130,2013-09-17 01:35:00
7:55 PM,77.0,60.8,57,30.10,10.0,ESE,5.8,-,N/A,,Scattered Clouds,120,2013-09-17 01:55:00
8:15 PM,77.0,60.8,57,30.12,10.0,East,5.8,-,N/A,,Mostly Cloudy,100,2013-09-17 02:15:00
8:35 PM,75.2,60.8,61,30.14,10.0,SE,13.8,26.5,N/A,Thunderstorm,Overcast,130,2013-09-17 02:35:00
8:55 PM,71.6,62.6,73,30.15,10.0,ESE,16.1,24.2,N/A,,Mostly Cloudy,110,2013-09-17 02:55:00
9:15 PM,69.8,62.6,78,30.16,10.0,ESE,9.2,-,N/A,,Mostly Cloudy,110,2013-09-17 03:15:00
9:35 PM,69.8,62.6,78,30.16,10.0,East,8.1,-,N/A,,Mostly Cloudy,90,2013-09-17 03:35:00
9:55 PM,69.8,64.4,83,30.16,10.0,ENE,5.8,-,N/A,,Mostly Cloudy,70,2013-09-17 03:55:00
10:15 PM,68.0,64.4,88,30.17,10.0,ESE,3.5,-,N/A,,Mostly Cloudy,110,2013-09-17 04:15:00
10:35 PM,69.8,64.4,83,30.18,10.0,East,5.8,-,N/A,,Scattered Clouds,100,2013-09-17 04:35:00
10:55 PM,69.8,64.4,83,30.17,10.0,ESE,9.2,-,N/A,,Mostly Cloudy,110,2013-09-17 04:55:00
11:15 PM,68.0,60.8,78,30.19,10.0,SE,15.0,-,N/A,,Mostly Cloudy,130,2013-09-17 05:15:00
11:35 PM,66.2,60.8,83,30.19,10.0,SE,9.2,-,N/A,,Overcast,140,2013-09-17 05:35:00
11:55 PM,66.2,62.6,88,30.20,10.0,SSE,9.2,-,N/A,,Overcast,150,2013-09-17 05:55:00